Regional Weather Roundup
Issued by NWS Midland/Odessa, TX

Home | Current Version | Previous Version | Text Only | Print | Product List | Glossary On
Versions: 1 2 3 4 5 6 7 8 9 10 11 12 13 14 15 16 17 18 19 20 21 22 23 24 25 26 27 28 29 30 31 32 33 34 35 36 37 38 39 40 41 42 43 44 45 46 47 48 49 50
172
ASUS44 KMAF 252110
RWRMAF
MIDLAND AREA WEATHER ROUNDUP
NATIONAL WEATHER SERVICE MIDLAND TX
400 PM CDT WED MAY 25 2016

...IN SOUTHWEST TEXAS AND SOUTHEAST NEW MEXICO...

CITY           SKY/WX    TMP DP  RH WIND       PRES   REMARKS
ALPINE         PTSUNNY   91  35  13 SW18G24   30.12F
ANDREWS        FAIR      92  26   9 SW12      29.98F
ARTESIA        SUNNY     91  25   9 SW24G33   29.96F
BIG SPRING     SUNNY     95  39  14 W9        29.95F
CARLSBAD       SUNNY     96  22   7 W18G25    29.93F
DRYDEN           N/A     90  70  51 SE13G20   29.94F
FORT STOCKTON  LGT RAIN  89  45  21 SE9       29.97S
GUAD PASS      NOT AVBL
HOBBS          SUNNY     93  19   7 SW15G24   29.99F
MARFA          CLOUDY    87  33  14 SW21G35   30.09F
MIDLAND AIRPK  SUNNY     98  22   6 SW9G18    29.96S
MIDLAND INTL   SUNNY     98  24   7 SW15G25   29.95F
ODESSA         SUNNY     96  24   7 SW9       29.97F
PECOS          SUNNY     98  28   8 W6        29.91F
PRESIDIO       FAIR      97  36  11 S6        29.95F
SEMINOLE       SUNNY     94  29  10 SW15      29.98F
SNYDER           N/A     93  45  18 SW5       29.94F
WINK           SUNNY     98  28   8 MISG      29.92F
$$
...OTHER STATIONS IN TEXAS...

CITY           SKY/WX    TMP DP  RH WIND       PRES   REMARKS
ABILENE        MOSUNNY   93  68  43 S12       29.92F
AMARILLO       SUNNY     90  33  13 SW14G24   29.93F
AUSTIN         CLOUDY    85  76  74 SE9       29.97F
BROWNSVILLE    MOSUNNY   89  75  63 SE18G26   29.92F
CORPUS CHRISTI PTSUNNY   89  79  72 SE17      29.94F HX 104
DALLAS FTW     CLOUDY    85  72  65 S16       29.93F
DEL RIO        CLOUDY    86  75  69 SE14      29.91F HAZE
EL PASO        MOSUNNY   88  28  11 VRB3G20   30.01F
HOUSTON INT    PTSUNNY   88  72  58 S15G21    30.01S
LUBBOCK        SUNNY     92  29  10 S15G28    29.94F
SAN ANGELO     MOSUNNY   92  68  45 S16       29.93F
SAN ANTONIO    CLOUDY    86  75  69 SE17      29.95F
WACO           CLOUDY    87  74  64 S17       29.95F
WICHITA FALLS  NOT AVBL
$$
...OTHER LOCATIONS IN NEW MEXICO...

CITY           SKY/WX    TMP DP  RH WIND       PRES   REMARKS
ALAMAGORDO     SUNNY     86  23  10 SW13G23   30.04F
ALBUQUERQUE    MOSUNNY   76  18  11 S9        30.06F
CANNON AFB     SUNNY     87  24  10 S20G25    29.99F
CLOVIS         SUNNY     88  28  11 SW17G25   29.99F
HOLLOMAN AFB   SUNNY     86  19   8 SW15G32   30.01F
ROSWELL        SUNNY     95  11   4 SW24G32   29.93F
RUIDOSO          N/A     73  14  10 SW18G39   30.18S
SANTA FE       SUNNY     73  11   9 W9        30.10F
TRUTH OR CONSE SUNNY     85  14   7 SW28G38   30.01F
TUCUMCARI      SUNNY     89  15   6 W17G32    29.94F
$$




USA.gov is the U.S. government's official web portal to all federal, state and local government web resources and services.